Concord, NC

6:37 PM EDT on April 24, 2017 (GMT -0400)
Concord Regional

Weather History for KJQF - November, 2013

Change the Weather History Date:

Monday, November 18, 2013

  Actual Average (KCLT) Record (KCLT)
Temperature  
Mean Temperature 63 °F -  
Max Temperature 75 °F 62 °F 78 °F (1942)
Min Temperature 51 °F 39 °F 20 °F (2014)
Degree Days  
Heating Degree Days 2    
Growing Degree Days 13 (Base 50)    
Moisture  
Dew Point 48 °F    
Average Humidity 62    
Maximum Humidity 94    
Minimum Humidity 27    
Precipitation  
Precipitation 0.01 in - - ()
Sea Level Pressure  
Sea Level Pressure 29.94 in    
Wind  
Wind Speed 11 mph (WNW)    
Max Wind Speed 98 mph    
Max Gust Speed 24 mph    
Visibility 10 miles    
Events Fog , Rain    
Averages and records for this station are not official NWS values.
T = Trace of Precipitation, MM = Missing Value Source: NWS Daily Summary

Daily Weather History Graph

Daily Weather History Graph

Search for Another Location

Airport or City:

Trip Planner

Search our weather history database for the weather conditions in past years. The results will help you decide how hot, cold, wet, or windy it might be!

Date:

Astronomy

Nov. 18, 2013 Rise Set
Actual Time 7:01 AM EST 5:14 PM EST
Civil Twilight 6:34 AM EST 5:41 PM EST
Nautical Twilight 6:03 AM EST 6:12 PM EST
Astronomical Twilight 5:32 AM EST 6:42 PM EST
Moon 6:16 PM EST (11/18) 7:48 AM EST (11/18)
Length of Visible Light 11h 07m
Length of Day
10h 13m
Full, 99% of the Moon is Illuminated
Nov 18
Full
Nov 25
Last Quarter
Dec 2
New
Dec 9
First Quarter
Dec 17
Full

Hourly Weather History & Observations

Time (EST) Temp. Dew Point Humidity Pressure Visibility Wind Dir Wind Speed Gust Speed Precip Events Conditions
12:15 AM 66.2 °F 64.4 °F 94% 29.93 in 7.0 mi SSW 16.1 mph 23.0 mph N/A   Overcast
12:35 AM 66.2 °F 64.4 °F 94% 29.91 in 7.0 mi South 10.4 mph 20.7 mph N/A Rain Light Rain
12:55 AM 66.2 °F 64.4 °F 94% 29.91 in 10.0 mi South 13.8 mph 20.7 mph N/A Rain Light Rain
1:15 AM 66.2 °F 64.4 °F 94% 29.89 in 10.0 mi South 12.7 mph 23.0 mph N/A   Overcast
1:35 AM 68.0 °F 64.4 °F 88% 29.90 in 10.0 mi SSW 13.8 mph 24.2 mph N/A   Overcast
1:55 AM 68.0 °F 64.4 °F 88% 29.90 in 10.0 mi SSW 11.5 mph - N/A   Overcast
2:15 AM 68.0 °F 64.4 °F 88% 29.88 in 10.0 mi SSW 12.7 mph 18.4 mph N/A   Overcast
2:35 AM 68.0 °F 64.4 °F 88% 29.88 in 10.0 mi SSW 11.5 mph - N/A   Overcast
2:55 AM 68.0 °F 64.4 °F 88% 29.88 in 10.0 mi SSW 10.4 mph 18.4 mph N/A   Overcast
3:15 AM 68.0 °F 64.4 °F 88% 29.88 in 10.0 mi SSW 10.4 mph 16.1 mph N/A   Overcast
3:35 AM 68.0 °F 64.4 °F 88% 29.88 in 10.0 mi SW 9.2 mph - N/A   Overcast
3:55 AM 68.0 °F 64.4 °F 88% 29.88 in 10.0 mi SW 9.2 mph - N/A   Overcast
4:15 AM 68.0 °F 64.4 °F 88% 29.89 in 10.0 mi SW 9.2 mph - N/A   Overcast
4:35 AM 68.0 °F 64.4 °F 88% 29.89 in 10.0 mi WSW 6.9 mph - N/A   Overcast
4:55 AM 68.0 °F 64.4 °F 88% 29.90 in 7.0 mi West 17.3 mph 23.0 mph 0.01 in Rain Light Rain
5:15 AM 66.2 °F 62.6 °F 88% 29.92 in 10.0 mi WNW 11.5 mph - N/A   Overcast
5:35 AM 64.4 °F 62.6 °F 94% 29.92 in 10.0 mi NW 5.8 mph - N/A   Overcast
5:55 AM 64.4 °F 60.8 °F 88% 29.92 in 10.0 mi NW 3.5 mph - N/A   Overcast
6:15 AM 62.6 °F 60.8 °F 94% 29.91 in 10.0 mi NW 3.5 mph - N/A   Mostly Cloudy
6:35 AM 62.6 °F 60.8 °F 94% 29.91 in 10.0 mi Calm Calm - N/A   Mostly Cloudy
6:51 AM 62.6 °F 60.8 °F 94% 29.91 in 7.0 mi Calm Calm - N/A Fog Patches of Fog
7:52 AM 60.8 °F 59.0 °F 94% 29.93 in 10.0 mi Calm Calm - N/A Fog Patches of Fog
8:52 AM 64.4 °F 62.6 °F 94% 29.95 in 10.0 mi Calm Calm - N/A   Partly Cloudy
9:51 AM 71.6 °F 55.4 °F 57% 29.95 in 10.0 mi WNW 5.8 mph - N/A   Clear
10:55 AM 73.4 °F 46.4 °F 38% 29.94 in 10.0 mi WNW 6.9 mph - N/A   Clear
11:52 AM 75.2 °F 44.6 °F 34% 29.92 in 10.0 mi NW 9.2 mph - N/A   Clear
12:52 PM 75.2 °F 41.0 °F 29% 29.91 in 10.0 mi WNW 6.9 mph - N/A   Clear
1:54 PM 75.2 °F 39.2 °F 27% 29.90 in 10.0 mi WNW 11.5 mph - N/A   Clear
2:52 PM 75.2 °F 41.0 °F 29% 29.90 in 10.0 mi NNW 9.2 mph 17.3 mph N/A   Clear
3:52 PM 73.4 °F 39.2 °F 29% 29.89 in 10.0 mi NNW 97.8 mph - N/A   Clear
4:52 PM 69.8 °F 33.8 °F 27% 29.91 in 10.0 mi NNW 9.2 mph - N/A   Clear
5:51 PM 64.4 °F 30.2 °F 28% 29.94 in 10.0 mi NNW 10.4 mph - N/A   Clear
6:51 PM 59.0 °F 30.2 °F 34% 29.96 in 10.0 mi NNW 8.1 mph - N/A   Clear
7:51 PM 57.2 °F 32.0 °F 38% 29.98 in 10.0 mi NNW 6.9 mph - N/A   Clear
8:15 PM 57.2 °F 30.2 °F 36% 29.98 in 10.0 mi NNW 10.4 mph - N/A   Clear
8:35 PM 59.0 °F 28.4 °F 31% 29.99 in 10.0 mi NNW 12.7 mph 19.6 mph N/A   Clear
8:51 PM 59.0 °F 26.6 °F 29% 29.99 in 10.0 mi NNW 13.8 mph 24.2 mph N/A   Clear
9:15 PM 57.2 °F 28.4 °F 33% 30.00 in 10.0 mi NW 11.5 mph 16.1 mph N/A   Clear
9:35 PM 55.4 °F 28.4 °F 36% 30.02 in 10.0 mi NNW 9.2 mph - N/A   Clear
9:51 PM 55.4 °F 28.4 °F 36% 30.02 in 10.0 mi North 6.9 mph - N/A   Clear
9:55 PM 53.6 °F 30.2 °F 41% 30.02 in 10.0 mi North 5.8 mph - N/A   Clear
10:15 PM 51.8 °F 30.2 °F 44% 30.03 in 10.0 mi NNW 8.1 mph - N/A   Clear
10:35 PM 53.6 °F 30.2 °F 41% 30.03 in 10.0 mi NNW 6.9 mph - N/A   Clear
10:51 PM 53.6 °F 30.2 °F 41% 30.03 in 10.0 mi North 8.1 mph - N/A   Clear
10:55 PM 51.8 °F 30.2 °F 44% 30.03 in 10.0 mi NNW 6.9 mph - N/A   Clear
11:15 PM 51.8 °F 30.2 °F 44% 30.03 in 10.0 mi NNW 11.5 mph - N/A   Clear
11:35 PM 51.8 °F 30.2 °F 44% 30.03 in 10.0 mi NNW 9.2 mph 16.1 mph N/A   Clear
11:55 PM 51.8 °F 30.2 °F 44% 30.05 in 10.0 mi NNW 10.4 mph - N/A   Clear